Погода в Старой Купавне

Россия / Московская область     55°48′38″N   38°10′32″E
темп.,
°C
ветер,
м/с
пор.,
м/с
влажн.,
%
обл.,
%
осадки,
мм/ч
давл.,
гПа
погр.,
м
26 июня, вс
вс2600:00+18св22790 0.0 102014
03:00+16ссв11825 0.0 102111
06:00+19ссз137673 0.0 102184
09:00+26ссз23510 0.0 1022698
12:00+30сз23368 0.0 10212498
15:00+31с333125 0.0 10202703
18:00+29с34395 0.0 1020710
21:00+22ссв22633 0.0 102012
27 июня, пн
пн2700:00+20зюз11720 0.0 102111
03:00+20зсз22730 0.0 102137
06:00+22зсз27750 0.0 1021210
09:00+28сз35540 0.0 1020716
12:00+31сз56391 0.0 10192241
15:00+32ссз57350 0.0 10182748
18:00+30ссз57380 0.0 10181872
21:00+23ссв22680 0.0 101917
28 июня, вт
вт2800:00+21с227220 0.0 101920
03:00+18св36864 0.0 1020120
06:00+19всв38771 0.1 1021354
09:00+23св45465 0.1 1021839
12:00+25св45379 0.0 10211577
15:00+25ссв55315 0.0 10211773
18:00+23св45370 0.0 10221346
21:00+16всв36635 0.0 1023109
29 июня, ср
ср2900:00+13всв24728 0.0 102476
03:00+11всв22765 0.0 102427
06:00+13всв24641 0.0 1024141
09:00+19всв34400 0.0 10241052
12:00+22св23300 0.0 10231967
15:00+23св23275 0.0 10222256
18:00+22св33322 0.0 10211985
21:00+15всв37630 0.0 1022123
30 июня, чт
чт3000:00+12всв22690 0.0 102315
03:00+11с11754 0.0 102312
06:00+14с236621 0.0 1023100
09:00+20ссз244211 0.0 1022910
12:00+24ссз34306 0.0 10211848
15:00+25с452719 0.0 10201953
18:00+24с45365 0.0 10201666
21:00+17ссз37615 0.0 1021118